星链-11338 (STARLINK-11338)

导读 | 星芒AI

STARLINK-11338 是 SpaceX 星链计划中的一颗低轨通信卫星,属于第 5 批星链卫星群(v1.0)。该卫星于 2020 年 11 月 11 日随猎鹰 9 号火箭发射升空,旨在为全球提供高速互联网服务。它运行在约 550 公里的近地轨道,设计寿命约 5 年,具备自动避障和激光通信能力。作为星链系统的一部分,STARLINK-11338 有助于提升偏远地区的网络覆盖与连接质量。

基本信息
目录编号:
61534
目录名称:
STARLINK-11338
国际标识:
2024-184C
轨道中心:
EARTH
卫星名称:
星链-11338
卫星全名:
星链-11338 (STARLINK-11338)
卫星状态:
在轨 (已飞行426 天)
发射日期:
2024-10-15 UTC
国别 :
美国 (US)
星等 :
--
轨道信息
数据来源 国际轨道数据
星历时间: 2025-12-15T04:40:15+0800
22小时前
查看轨道信息
半长轴: 6737.857km
偏心率: 0.0001051
轨道倾角: 53.161°
近地点辐角 78.431°
升交点赤经 294.469°
平近点角 281.683°
近地点: 359.013km
远地点: 360.431km
周期: 91.737分钟
每日圈数: 15.697127
详细信息
固有亮度:
5
最大亮度:
2.5
卫星平台:
Starlink V1.0
覆盖范围:
全球
运营商:
太空探索技术公司
运营商所在国:
美国
制造商(研发单位):
太空探索技术公司
制造商所在国:
美国
使用方式:
暂无
卫星简介
Starlink 计划是 SpaceX 推出的全球卫星互联网项目,通过发射低轨道卫星,为全球尤其是偏远地区提供高速、低延迟的互联网服务。自 2019 年起,Starlink 已部署数千颗卫星,旨在缩小全球数字鸿沟,推动互联网普及。该项目还为军事、航空等行业提供通信支持,带来广泛经济效益。
2D轨道图
3D轨道图
轨道高度分析图
轨道倾角分析图
轨道综合分析图
查看轨道综合分析图